{"data":{"norad_id":43651,"intl_designator":"2018-079A","name":"AEHF-4 (USA 288)","alt_names":[],"object_type":"PAYLOAD","status":"ACTIVE","operator":null,"country":"US","launch_date":"2018-10-17","launch_site_code":"AFETR","launch_vehicle":null,"mission":null,"orbit_class":"UNKNOWN","rcs_meters":null,"size_class":null,"mass_kg":null,"dimensions":null,"purposes":["comms"],"wikipedia_slug":null,"has_3d_model":false,"image_url":null,"decayed_at":null,"tle_current":{"epoch":"2026-09-20T03:30:38.801952Z","epoch_age_seconds":52610,"freshness":"FRESH","line1":"1 43651U 18079A   26263.14628243 -.00000278  00000+0  00000+0 0  9999","line2":"2 43651   1.4216 358.5087 0068483 359.7926 345.8023  1.00277236 29241","mean_motion":1.00277236,"eccentricity":0.0068483,"inclination_deg":1.4216,"raan_deg":358.5087,"arg_perigee_deg":359.7926,"mean_anomaly_deg":345.8023,"bstar":0,"rev_number":2924,"period_min":1436.018838812,"perigee_km":35496.32064785,"apogee_km":36073.813186623,"semimajor_km":42163.203917237,"source":"CELESTRAK","updated_at":"2026-09-20T09:00:35.262756Z"}}}